Regional Weather Roundup
Issued by NWS Little Rock, AR

Home | Current Version | Previous Version | Text Only | Print | Product List | Glossary Off
Versions: 1 2 3 4 5 6 7 8 9 10 11 12 13 14 15 16 17 18 19 20 21 22 23 24 25 26 27 28 29 30 31 32 33 34 35 36 37 38 39 40 41 42 43 44 45

000
ASUS44 KLZK 311805
RWRLZK

WEATHER ROUNDUP FOR ARKANSAS
NATIONAL WEATHER SERVICE LITTLE ROCK AR
100 PM CDT MON AUG 31 2015

NOTE: "FAIR" INDICATES FEW OR NO CLOUDS BELOW 12,000 FEET WITH NO
SIGNIFICANT WEATHER AND/OR OBSTRUCTIONS TO VISIBILITY.

ARZ001-003-010-029-311900-
NORTHWEST ARKANSAS

CITY           SKY/WX    TMP DP  RH WIND       PRES   REMARKS
FAYETTEVILLE   MOSUNNY   85  69  58 S10       30.08F HX  89
6HR MIN TEMP:  68; 6HR MAX TEMP:  86;

FORT SMITH     SUNNY     88  65  46 VRB7      30.04F HX  90
6HR MIN TEMP:  72; 6HR MAX TEMP:  88;

BENTONVILLE    SUNNY     86  66  51 SW9G16    30.08F HX  88
6HR MIN TEMP:  70; 6HR MAX TEMP:  88;

ROGERS         SUNNY     87  68  52 S10       30.08F HX  90
6HR MIN TEMP:  70; 6HR MAX TEMP:  87;

SILOAM SPGS    SUNNY     86  66  51 SW10G20   30.05F HX  88
6HR MIN TEMP:  72; 6HR MAX TEMP:  86;

HIGHFILL       SUNNY     87  69  54 SW10      30.07F HX  91
6HR MIN TEMP:  70; 6HR MAX TEMP:  87;

SPRINGDALE     SUNNY     86  66  51 SW12      30.10F HX  88
$$

ARZ004-005-016-311900-
NORTH CENTRAL ARKANSAS

CITY           SKY/WX    TMP DP  RH WIND       PRES   REMARKS
BATESVILLE     SUNNY     88  72  58 CALM      30.07F HX  94
6HR MIN TEMP:  70; 6HR MAX TEMP:  90;

FLIPPIN        SUNNY     90  66  45 S5        30.06S HX  92
6HR MIN TEMP:  68; 6HR MAX TEMP:  90;

MTN HOME       MOSUNNY   87  70  56 SW7       30.07F HX  92
6HR MIN TEMP:  67; 6HR MAX TEMP:  87;

$$

ARZ040-041-311900-
WEST CENTRAL ARKANSAS

CITY           SKY/WX    TMP DP  RH WIND       PRES   REMARKS
MENA           MOSUNNY   91  66  43 S3        30.08F HX  94
MOUNT IDA      SUNNY     91  66  43 SE5       30.04F HX  93
6HR MIN TEMP:  66; 6HR MAX TEMP:  91;

$$

ARZ009-017-025-026-028-311900-
NORTHEAST ARKANSAS

CITY           SKY/WX    TMP DP  RH WIND       PRES   REMARKS
JONESBORO      SUNNY     85  71  63 E5        30.07F HX  90
6HR MIN TEMP:  67; 6HR MAX TEMP:  85;

NEWPORT        SUNNY     87  71  58 CALM      30.08F HX  92
6HR MIN TEMP:  69; 6HR MAX TEMP:  87;

WALNUT RIDGE   SUNNY     84  72  65 S7        30.07F HX  89
6HR MIN TEMP:  68; 6HR MAX TEMP:  84;

BLYTHEVILLE    SUNNY     86  72  62 CALM      30.09F HX  92
6HR MIN TEMP:  69; 6HR MAX TEMP:  86;

$$

ARZ022-023-033-042-044-311900-
CENTRAL ARKANSAS

CITY           SKY/WX    TMP DP  RH WIND       PRES   REMARKS
LITTLE ROCK    MOSUNNY   93  68  43 E7        30.05F HX  97
6HR MIN TEMP:  71; 6HR MAX TEMP:  93;

N LITTLE ROCK  MOSUNNY   92  70  49 E7        30.05F HX  97
6HR MIN TEMP:  71; 6HR MAX TEMP:  92;

JACKSONVILLE   SUNNY     90  69  48 VRB1      30.05F HX  94
6HR MIN TEMP:  69; 6HR MAX TEMP:  90;

SEARCY         SUNNY     90  73  57 E7        30.07F HX  98
6HR MIN TEMP:  70; 6HR MAX TEMP:  90;

HOT SPRINGS    SUNNY     91  64  40 CALM      30.05F HX  92
6HR MIN TEMP:  69; 6HR MAX TEMP:  92;

RUSSELLVILLE   SUNNY     90  67  46 S5        30.05F HX  93
6HR MIN TEMP:  68; 6HR MAX TEMP:  90;

$$

ARZ036-311900-
EAST ARKANSAS

CITY           SKY/WX    TMP DP  RH WIND       PRES   REMARKS
WEST MEMPHIS   SUNNY     87  71  58 SE3       30.06F HX  93
6HR MIN TEMP:  68; 6HR MAX TEMP:  87;

$$

ARZ050-053-066-070-073-311900-
SOUTHWEST ARKANSAS

CITY           SKY/WX    TMP DP  RH WIND       PRES   REMARKS
ARKADELPHIA    FAIR      95  66  38 VRB3      30.04F HX  98
6HR MIN TEMP:  66; 6HR MAX TEMP:  96;

CAMDEN         SUNNY     93  66  40 S3        30.04F HX  96
TEXARKANA      SUNNY     89  66  46 MISG      30.05F HX  91
6HR MIN TEMP:  69; 6HR MAX TEMP:  91;

EL DORADO      SUNNY     91  65  41 SE9       30.06F HX  93
6HR MIN TEMP:  68; 6HR MAX TEMP:  91;

DE QUEEN       SUNNY     91  68  46 VRB6      30.03F HX  95
6HR MIN TEMP:  66; 6HR MAX TEMP:  91;

$$

ARZ056-057-069-311900-
SOUTHEAST ARKANSAS

CITY           SKY/WX    TMP DP  RH WIND       PRES   REMARKS
PINE BLUFF     SUNNY     89  68  49 VRB3      30.05F HX  93
6HR MIN TEMP:  69; 6HR MAX TEMP:  90;

STUTTGART      SUNNY     88  70  55 E6        30.06F HX  92
6HR MIN TEMP:  72; 6HR MAX TEMP:  88;

MONTICELLO     SUNNY     93  66  40 NW7       30.04F HX  96
6HR MIN TEMP:  70; 6HR MAX TEMP:  93;


$$




USA.gov is the U.S. government's official web portal to all federal, state and local government web resources and services.